Wiley, CO

1:10 PM MDT on August 30, 2016 (GMT -0600)
Lamar Municipal

Weather History for KLAA - September, 2012

Change the Weather History Date:

Wednesday, September 19, 2012

  Actual Average Record
Temperature  
Mean Temperature 68 °F 65 °F  
Max Temperature 93 °F 82 °F 102 °F (1935)
Min Temperature 42 °F 49 °F 32 °F (1971)
Degree Days  
Heating Degree Days 0 3  
Month to date heating degree days 36 28  
Since 1 July heating degree days 36 33  
Cooling Degree Days 3 3  
Month to date cooling degree days 100 98  
Year to date cooling degree days 1616 1087  
Growing Degree Days 18 (Base 50)    
Moisture  
Dew Point 29 °F    
Average Humidity 33    
Maximum Humidity 58    
Minimum Humidity 8    
Precipitation  
Precipitation 0.00 in 0.04 in 1.20 in (1972)
Month to date precipitation 0.16 0.89  
Year to date precipitation 4.54 13.26  
Sea Level Pressure  
Sea Level Pressure 29.95 in    
Wind  
Wind Speed 8 mph (West)    
Max Wind Speed 17 mph    
Max Gust Speed 21 mph    
Visibility 9 miles    
Events      
T = Trace of Precipitation, MM = Missing Value Source: NWS Daily Summary

Daily Weather History Graph

Daily Weather History Graph

Search for Another Location

Airport or City:

Trip Planner

Search our weather history database for the weather conditions in past years. The results will help you decide how hot, cold, wet, or windy it might be!

Date:

Astronomy

Sep. 19, 2012 Rise Set
Actual Time 6:36 AM MDT 6:51 PM MDT
Civil Twilight 6:10 AM MDT 7:17 PM MDT
Nautical Twilight 5:39 AM MDT 7:48 PM MDT
Astronomical Twilight 5:07 AM MDT 8:20 PM MDT
Moon 10:44 AM MDT (9/19) 9:07 PM MDT (9/19)
Length of Visible Light 13h 07m
Length of Day
12h 15m
Waxing Crescent, 17% of the Moon is Illuminated
Sep 19
Waxing Crescent
Sep 22
First Quarter
Sep 29
Full
Oct 8
Last Quarter
Oct 15
New

Hourly Weather History & Observations

Time (MDT) Temp. Windchill Dew Point Humidity Pressure Visibility Wind Dir Wind Speed Gust Speed Precip Events Conditions
12:53 AM 51.1 °F - 28.9 °F 43% 29.94 in 10.0 mi SW 3.5 mph - N/A   Clear
1:53 AM 51.1 °F - 30.9 °F 46% 29.94 in 10.0 mi SW 3.5 mph - N/A   Clear
2:53 AM 46.0 °F 43.1 °F 30.0 °F 54% 29.94 in 10.0 mi SW 5.8 mph - N/A   Clear
3:53 AM 45.0 °F 40.6 °F 28.9 °F 53% 29.94 in 10.0 mi SW 8.1 mph - N/A   Clear
5:53 AM 45.0 °F 41.2 °F 30.0 °F 56% 29.96 in 7.0 mi SW 6.9 mph - N/A   Clear
6:53 AM 46.0 °F 40.6 °F 30.9 °F 56% 29.98 in 9.0 mi SSW 11.5 mph - N/A   Clear
7:53 AM 57.9 °F - 33.1 °F 39% 29.99 in 10.0 mi WSW 12.7 mph - N/A   Clear
8:53 AM 64.9 °F - 34.0 °F 32% 29.99 in 10.0 mi West 12.7 mph - N/A   Clear
9:53 AM 71.1 °F - 34.0 °F 26% 29.99 in 10.0 mi West 10.4 mph - N/A   Clear
10:53 AM 77.0 °F - 35.1 °F 22% 29.97 in 10.0 mi West 13.8 mph - N/A   Clear
11:53 AM 84.9 °F - 33.1 °F 16% 29.95 in 10.0 mi WSW 11.5 mph - N/A   Clear
12:53 PM 88.0 °F - 28.9 °F 12% 29.93 in 10.0 mi West 13.8 mph - N/A   Clear
1:53 PM 90.0 °F - 26.1 °F 10% 29.90 in 9.0 mi SW 5.8 mph - N/A   Clear
2:53 PM 91.9 °F - 24.1 °F 9% 29.89 in 9.0 mi NW 11.5 mph - N/A   Clear
3:53 PM 91.9 °F - 21.9 °F 8% 29.88 in 8.0 mi NW 11.5 mph - N/A   Clear
4:53 PM 90.0 °F - 25.0 °F 10% 29.90 in 9.0 mi NNW 9.2 mph - N/A   Clear
5:53 PM 88.0 °F - 27.0 °F 11% 29.90 in 8.0 mi North 6.9 mph - N/A   Clear
6:53 PM 79.0 °F - 28.0 °F 15% 29.93 in 8.0 mi NNE 8.1 mph - N/A   Clear
7:53 PM 73.0 °F - 28.0 °F 19% 29.94 in 10.0 mi ENE 10.4 mph - N/A   Clear
8:53 PM 68.0 °F - 28.0 °F 22% 29.96 in 10.0 mi East 8.1 mph - N/A   Clear
9:53 PM 66.0 °F - 28.9 °F 25% 29.97 in 10.0 mi East 5.8 mph - N/A   Clear
10:53 PM 60.1 °F - 28.9 °F 31% 29.99 in 10.0 mi Calm Calm - N/A   Clear
11:53 PM 57.9 °F - 28.9 °F 33% 29.99 in 10.0 mi Calm Calm - N/A   Clear